[[{"header":{"parameterUnit":"m.s-1","parameterCategory":2,"la1":30.2991,"la2":30.254,"lo1":-89.0895,"lo2":-89.0444,"dy":0.0017,"dx":0.0017,"nx":28,"ny":28,"refTime":"2024-07-31T03:00:00:Z","depth":"0","parameterNumber":2,"parameterNumberName":"U-component_of_CURRENTS"},"data":[0,0,0,0,0,0,0,0,0,0,0,0,0,0,0,0,0,0,0,0,0,0,0,0,0,0,0,0,0,0,0,0,0,0,0,0,0,0,0,0,0,0,0,0,0,0,0,0,0,0,0,0,0,0,0,0,0,0,0.4676,0.4676,0,0.4713,0.4713,0.4713,0.4705,0.4705,0.4704,0.4704,0.4644,0.4643,0.4642,0,0,0,0,0,0,0,0,0,0,0,0,0,0.4636,0.4636,0.4676,0.4677,0.4678,0.4713,0.4713,0.4713,0.4705,0.4705,0.4704,0.4704,0.4645,0.4643,0.4641,0,0,0,0,0,0,0,0,0,0,0,0,0,0.4656,0.4636,0.4675,0.4682,0.4683,0.4713,0.4713,0.4713,0.4705,0.4705,0.4704,0.4704,0.4645,0.4643,0.4641,0.4634,0,0,0.4635,0.4634,0,0,0,0,0,0,0,0,0.4655,0.4657,0.468,0.4681,0.4683,0.4709,0.4678,0.4684,0.4705,0.4691,0.4704,0.4704,0.4661,0.4657,0.4659,0.4631,0.4629,0.4635,0.4633,0.4632,0.4632,0,0,0,0,0,0,0,0.4653,0.4656,0.4685,0.4681,0.4683,0.4697,0.4698,0.4679,0.4671,0.4692,0.4693,0.4706,0.466,0.4661,0.4657,0.4628,0.4635,0.4633,0.4631,0.4631,0.4626,0.4628,0,0,0,0,0,0,0.4658,0.4654,0.4684,0.4687,0.4674,0.4698,0.47,0.4696,0.4673,0.4672,0.4706,0.4706,0.4664,0.4659,0.4655,0.4662,0.4632,0.463,0.4629,0.4625,0.4627,0.4628,0,0,0,0,0,0,0.4657,0.466,0.4682,0.4677,0.4681,0.4699,0.4696,0.4697,0.4701,0.4686,0.4682,0.4709,0.4664,0.4658,0.4647,0.4659,0.4629,0.4628,0.4624,0.4626,0.4627,0.4666,0,0,0,0,0,0,0.4655,0.4659,0.4652,0.4676,0.4682,0.4698,0.4697,0.4699,0.4712,0.4711,0.4687,0.4681,0.4663,0.4651,0.4645,0.4656,0.4626,0.4622,0.4625,0.4627,0.4663,0.4669,0.4673,0,0,0,0,0,0.4653,0.4636,0.4651,0.4655,0.4673,0.4698,0.4701,0.4711,0.4713,0.4712,0.4705,0.4682,0.4661,0.465,0.4643,0.4653,0.4621,0.4624,0.4627,0.4661,0.4668,0.4673,0,0,0,0,0,0,0.4608,0.4635,0.4651,0.4641,0.4674,0.4699,0.4694,0.4714,0.471,0.4701,0.4689,0.4683,0.4683,0.4665,0.4653,0.4662,0.464,0.4642,0.4669,0.4675,0.468,0.4662,0.4624,0,0,0,0,0,0.4601,0.4594,0.4636,0.4629,0.4642,0.4673,0.4683,0.4697,0.4704,0.4702,0.4694,0.4686,0.4689,0.4679,0.4672,0.4666,0.469,0.4672,0.4678,0.4682,0.4665,0.474,0.4751,0.4636,0.4636,0.4636,0,0,0.4581,0.4597,0.4592,0.4621,0.4637,0.4661,0.4675,0.4688,0.4703,0.4694,0.4691,0.47,0.4694,0.4697,0.4695,0.468,0.4733,0.4685,0.4689,0.4669,0.4744,0.4755,0.4765,0.4638,0.4638,0.4638,0,0,0.4554,0.4554,0.4553,0.4578,0.4616,0.464,0.4649,0.4682,0.4684,0.4695,0.4705,0.472,0.4707,0.4718,0.472,0.4747,0.4763,0.4751,0.4752,0.4827,0.4836,0.4845,0.4915,0.4929,0.4748,0.4748,0.4748,0,0.4542,0.4538,0.4557,0.4574,0.4592,0.4634,0.4651,0.4664,0.4691,0.4701,0.4691,0.4722,0.4716,0.4744,0.4756,0.4756,0.4804,0.4729,0.4834,0.4843,0.4851,0.492,0.4936,0.475,0.475,0.475,0.475,0,0.4525,0.4528,0.4525,0.4562,0.4586,0.4597,0.4639,0.4659,0.4673,0.4697,0.4721,0.4727,0.4749,0.4761,0.4758,0.482,0.4839,0.4839,0.4818,0.4865,0.4935,0.4951,0.4754,0.4753,0.4752,0.4752,0,0,0.4485,0.4512,0.4514,0.4521,0.4577,0.459,0.4625,0.4669,0.4691,0.4711,0.4748,0.4756,0.4774,0.4778,0.4796,0.4845,0.4955,0.4864,0.4867,0.4931,0.5131,0.4874,0.4867,0.4987,0.499,0.4991,0.5164,0,0.4473,0.4486,0.4514,0.4527,0.4531,0.4586,0.4617,0.4662,0.4694,0.4739,0.4765,0.48,0.4777,0.4805,0.4849,0.4937,0.4994,0.4907,0.5074,0.5078,0.4843,0.4874,0.4625,0.4732,0.518,0.5182,0.5184,0,0.4438,0.4458,0.4465,0.4498,0.4508,0.4533,0.4591,0.4622,0.4705,0.4739,0.4786,0.4823,0.4898,0.4878,0.5021,0.4976,0.5046,0.5102,0.5111,0.4856,0.4847,0.4752,0.4744,0.4676,0.5208,0.5206,0.5204,0,0.4357,0.4406,0.4404,0.4416,0.448,0.45,0.4539,0.4616,0.4626,0.4751,0.4782,0.4884,0.4912,0.5039,0.5093,0.5105,0.5241,0.5286,0.5121,0.5107,0.491,0.4869,0.4839,0.539,0.5389,0.5389,0.5388,0,0.4288,0.4263,0.4367,0.4353,0.4353,0.4441,0.4444,0.4511,0.4606,0.4612,0.4761,0.4776,0.495,0.5022,0.5131,0.5122,0.5273,0.5108,0.512,0.4913,0.4873,0.4812,0.4791,0.5395,0.5394,0.5392,0.5391,0,0.4112,0.4185,0.4173,0.4274,0.4289,0.4281,0.4336,0.4354,0.448,0.4506,0.4551,0.4705,0.4787,0.4911,0.5097,0.5096,0.503,0.5146,0.4865,0.4833,0.457,0.456,0.4364,0.4248,0.5038,0.5033,0.5028,0,0.3986,0.3989,0.4076,0.4082,0.4103,0.412,0.413,0.4251,0.4272,0.4422,0.4423,0.4529,0.4543,0.4687,0.471,0.482,0.4788,0.4661,0.4599,0.4482,0.4489,0.4383,0.4297,0.4414,0.4405,0.4397,0.4391,0,0.3791,0.3852,0.3877,0.3893,0.3904,0.3891,0.3923,0.392,0.4066,0.4109,0.4171,0.4221,0.4278,0.4222,0.4286,0.4344,0.4399,0.4497,0.4486,0.404,0.3822,0.3739,0.4397,0.4322,0.4329,0.4334,0.4338,0.4341,0.3656,0.3632,0.3718,0.3686,0.3705,0.367,0.3596,0.3658,0.3652,0.3669,0.3844,0.3824,0.3868,0.3882,0.3895,0.3765,0.3854,0.3748,0.3776,0.3705,0.3446,0.3894,0.3733,0.3736,0.3739,0.3742,0.3744,0,0.3485,0.3496,0.3502,0.3476,0.3413,0.3476,0.3455,0.3371,0.3288,0.3354,0.3364,0.335,0.327,0.3326,0.3258,0.3152,0.3076,0.3098,0.2983,0.2964,0.348,0.3299,0.2899,0.2899,0.2899,0.2899,0.2899,0.2899,0.3419,0.3353,0.3346,0.3197,0.3168,0.3019,0.2965,0.2882,0.2885,0.2775,0.2733,0.2802,0.2973,0.297,0.2858,0.2786,0.2673,0.244,0.2556,0.302,0.3087,0.3151,0.2979,0.2518,0.2517,0.1911,0.1906,0.1903]},{"header":{"parameterUnit":"m.s-1","parameterCategory":2,"la1":30.2991,"la2":30.254,"lo1":-89.0895,"lo2":-89.0444,"dy":0.0017,"dx":0.0017,"nx":28,"ny":28,"refTime":"2024-07-31T03:00:00:Z","depth":"0","parameterNumber":3,"parameterNumberName":"V-component_of_CURRENTS"},"data":[0,0,0,0,0,0,0,0,0,0,0,0,0,0,0,0,0,0,0,0,0,0,0,0,0,0,0,0,0,0,0,0,0,0,0,0,0,0,0,0,0,0,0,0,0,0,0,0,0,0,0,0,0,0,0,0,0,0,-0.0181,-0.0181,0,-0.0196,-0.0197,-0.0197,-0.0233,-0.0233,-0.0234,-0.0234,-0.0321,-0.0323,-0.0325,0,0,0,0,0,0,0,0,0,0,0,0,0,-0.0233,-0.0232,-0.0181,-0.0181,-0.018,-0.0196,-0.0197,-0.0197,-0.0233,-0.0233,-0.0234,-0.0234,-0.0321,-0.0323,-0.0325,0,0,0,0,0,0,0,0,0,0,0,0,0,-0.0228,-0.0231,-0.0181,-0.0198,-0.0199,-0.0196,-0.0197,-0.0197,-0.0233,-0.0233,-0.0234,-0.0235,-0.032,-0.0323,-0.0325,-0.0329,0,0,-0.0334,-0.0335,0,0,0,0,0,0,0,0,-0.0229,-0.0227,-0.0195,-0.0197,-0.0198,-0.0211,-0.0247,-0.0244,-0.0232,-0.0223,-0.0234,-0.0235,-0.0288,-0.0294,-0.0299,-0.0333,-0.0337,-0.0334,-0.0336,-0.0337,-0.0338,0,0,0,0,0,0,0,-0.0229,-0.0227,-0.019,-0.0195,-0.0197,-0.0222,-0.0222,-0.0247,-0.0256,-0.0224,-0.0226,-0.0223,-0.029,-0.0296,-0.0301,-0.0338,-0.0334,-0.0337,-0.0339,-0.034,-0.0342,-0.0341,0,0,0,0,0,0,-0.0217,-0.0226,-0.0189,-0.019,-0.0212,-0.022,-0.022,-0.0208,-0.0254,-0.026,-0.0222,-0.0224,-0.0291,-0.0298,-0.0304,-0.027,-0.0337,-0.034,-0.0342,-0.0344,-0.0342,-0.034,0,0,0,0,0,0,-0.0218,-0.0213,-0.0189,-0.0207,-0.0205,-0.0218,-0.0205,-0.0208,-0.0208,-0.0251,-0.0259,-0.0217,-0.0291,-0.03,-0.0298,-0.0276,-0.0341,-0.0344,-0.0346,-0.0343,-0.0341,-0.0229,0,0,0,0,0,0,-0.0219,-0.0213,-0.0206,-0.0206,-0.0204,-0.018,-0.0204,-0.0208,-0.0204,-0.0207,-0.025,-0.0259,-0.0293,-0.0293,-0.03,-0.0281,-0.0346,-0.0348,-0.0345,-0.0342,-0.0235,-0.0223,-0.0213,0,0,0,0,0,-0.0221,-0.0208,-0.0206,-0.0201,-0.0191,-0.0179,-0.018,-0.0195,-0.0203,-0.0198,-0.021,-0.0257,-0.028,-0.0293,-0.0303,-0.0283,-0.0349,-0.0346,-0.0342,-0.0239,-0.0225,-0.0213,0,0,0,0,0,0,-0.0227,-0.021,-0.0208,-0.019,-0.018,-0.0184,-0.0183,-0.0185,-0.019,-0.0193,-0.0233,-0.0242,-0.0234,-0.0269,-0.0283,-0.0274,-0.0324,-0.0322,-0.0243,-0.023,-0.0219,-0.0218,-0.0348,0,0,0,0,0,-0.0222,-0.021,-0.0194,-0.018,-0.0173,-0.0174,-0.0172,-0.0173,-0.0175,-0.0179,-0.02,-0.022,-0.0226,-0.0235,-0.0255,-0.0247,-0.0274,-0.0242,-0.0231,-0.0221,-0.0225,-0.0227,-0.0217,-0.0328,-0.0328,-0.0328,0,0,-0.0215,-0.0209,-0.0199,-0.0181,-0.0177,-0.0149,-0.0175,-0.0162,-0.0134,-0.0187,-0.0164,-0.0185,-0.0215,-0.0202,-0.0203,-0.0228,-0.0198,-0.0217,-0.0208,-0.0218,-0.0222,-0.0212,-0.0202,-0.0326,-0.0326,-0.0326,0,0,-0.0189,-0.0192,-0.0164,-0.0155,-0.0139,-0.0136,-0.0125,-0.0115,-0.011,-0.0088,-0.0109,-0.0107,-0.0131,-0.0134,-0.0142,-0.0083,-0.014,-0.0095,-0.004,-0.0041,-0.0032,-0.0025,-0.0022,-0.0016,-0.009,-0.0089,-0.0089,0,-0.0181,-0.0137,-0.0155,-0.0126,-0.0103,-0.0121,-0.0072,-0.0071,-0.0059,-0.004,-0.007,-0.0067,-0.0097,-0.0062,-0.0043,-0.006,-0.0071,-0.0085,-0.0026,-0.002,-0.0014,-0.0014,-0.0008,-0.0083,-0.0084,-0.0085,-0.0085,0,-0.012,-0.0091,-0.0076,-0.0038,-0.0025,0.001,0.002,0.0035,0.0035,0.0042,0.0069,0.0037,0.0035,0.0033,0.0008,0.0044,0.0021,-0.0011,-0.0059,0.0004,-0.0,0.0004,-0.0075,-0.0077,-0.0079,-0.008,0,0,-0.0058,-0.0034,-0.0022,0.0023,0.0032,0.0069,0.0095,0.0141,0.0187,0.0164,0.0224,0.0196,0.0166,0.0155,0.0128,0.0125,0.016,0.0077,0.0074,0.008,0.0164,0.0145,0.0147,0.014,0.0141,0.0141,0.0153,0,0.0014,0.0097,0.0081,0.0174,0.0232,0.0209,0.025,0.0274,0.0276,0.0319,0.0281,0.0314,0.0218,0.0235,0.0208,0.0179,0.0172,0.016,0.0099,0.0097,0.0074,0.0151,0.0146,0.0155,0.0156,0.0157,0.0157,0,0.0116,0.0156,0.0259,0.0321,0.0344,0.0386,0.046,0.0491,0.0506,0.0506,0.0488,0.045,0.044,0.0357,0.0294,0.029,0.0228,0.0192,0.0192,0.0131,0.0086,0.0087,0.0161,0.0017,0.0163,0.0162,0.0162,0,0.0237,0.03,0.0395,0.0415,0.0465,0.0512,0.0542,0.0563,0.0615,0.0634,0.0671,0.0607,0.0617,0.0511,0.039,0.0351,0.0332,0.027,0.0194,0.0192,0.0152,0.0145,0.0077,0.0231,0.0231,0.0231,0.0231,0,0.0357,0.0442,0.0465,0.0526,0.0645,0.0636,0.0751,0.076,0.0798,0.0882,0.0782,0.0839,0.0656,0.0604,0.046,0.0346,0.0375,0.0218,0.0199,0.0194,0.019,0.0031,-0.0052,0.0231,0.0231,0.0231,0.0231,0,0.0504,0.0515,0.0629,0.0686,0.0713,0.0807,0.0882,0.0955,0.0972,0.1078,0.1095,0.1038,0.0954,0.0766,0.0628,0.0469,0.0271,0.0303,0.0308,0.0289,0.005,-0.0026,-0.013,-0.0181,0.0213,0.0213,0.0212,0,0.0603,0.0671,0.0752,0.0812,0.0848,0.0958,0.1026,0.1053,0.1122,0.1212,0.128,0.1234,0.1213,0.0985,0.0693,0.0445,0.0291,0.0289,0.0199,0.0053,-0.0046,-0.0113,-0.0153,0.02,0.02,0.02,0.0199,0,0.0768,0.0782,0.085,0.0953,0.1042,0.1145,0.1241,0.1321,0.1369,0.1459,0.156,0.1565,0.1332,0.1068,0.0715,0.0535,0.0182,0.0274,0.0126,-0.0055,-0.0134,-0.0196,0.0175,0.0197,0.0197,0.0197,0.0197,0.0198,0.0878,0.0934,0.0982,0.1086,0.1184,0.1299,0.1387,0.149,0.162,0.1737,0.1749,0.1776,0.1407,0.091,0.0651,0.0161,0.0156,-0.0001,-0.0075,-0.0126,-0.0196,0.0173,0.0165,0.0166,0.0166,0.0166,0.0166,0,0.0982,0.1005,0.1102,0.12,0.1301,0.1338,0.1495,0.1581,0.1734,0.1858,0.1931,0.1771,0.1321,0.0858,0.0196,-0.0133,-0.0249,-0.0303,-0.0409,-0.0429,-0.0096,-0.0119,-0.0191,-0.0191,-0.0191,-0.019,-0.019,-0.019,0.1025,0.1091,0.1107,0.1256,0.1334,0.1462,0.1549,0.1699,0.1815,0.1951,0.1971,0.1965,0.1624,0.0472,-0.0303,-0.0471,-0.0671,-0.0727,-0.0814,-0.0613,-0.0591,-0.057,-0.0612,-0.0785,-0.0786,-0.1116,-0.1119,-0.1122]}],[{"header":{"parameterUnit":"m.s-1","parameterCategory":2,"la1":30.2991,"la2":30.254,"lo1":-89.0895,"lo2":-89.0444,"dy":0.0017,"dx":0.0017,"nx":28,"ny":28,"refTime":"2024-07-31T03:00:00:Z","depth":"2","parameterNumber":2,"parameterNumberName":"U-component_of_CURRENTS"},"data":[0,0,0,0,0,0,0,0,0,0,0,0,0,0,0,0,0,0,0,0,0,0,0,0,0,0,0,0,0,0,0,0,0,0,0,0,0,0,0,0,0,0,0,0,0,0,0,0,0,0,0,0,0,0,0,0,0,0,0.2999,0.3,0,0.3046,0.3046,0.3046,0.315,0.3153,0.3155,0.3158,0.348,0.3486,0.3492,0,0,0,0,0,0,0,0,0,0,0,0,0,0.2976,0.2975,0.2999,0.3,0.3001,0.3046,0.3046,0.3046,0.315,0.3153,0.3156,0.3159,0.3478,0.3485,0.3493,0,0,0,0,0,0,0,0,0,0,0,0,0,0.2996,0.2975,0.2999,0.3061,0.3068,0.3046,0.3046,0.3047,0.3149,0.3153,0.3157,0.316,0.3476,0.3485,0.3494,0.3475,0,0,0.3522,0.3526,0,0,0,0,0,0,0,0,0.2995,0.2996,0.3051,0.3057,0.3064,0.31,0.3156,0.3205,0.3148,0.3113,0.3158,0.3162,0.3379,0.3396,0.3386,0.349,0.3504,0.3523,0.3529,0.3533,0.3536,0,0,0,0,0,0,0,0.2993,0.2995,0.3013,0.3052,0.306,0.308,0.3086,0.3164,0.3226,0.3117,0.3126,0.3137,0.3384,0.3376,0.3396,0.3509,0.3523,0.3531,0.3537,0.3541,0.3888,0.3891,0,0,0,0,0,0,0.2993,0.2993,0.3012,0.3015,0.3043,0.3077,0.3085,0.3081,0.3219,0.3243,0.3133,0.3142,0.3359,0.3384,0.3408,0.3628,0.3533,0.3542,0.3547,0.3884,0.3889,0.3893,0,0,0,0,0,0,0.2992,0.2994,0.301,0.301,0.3014,0.3074,0.3069,0.308,0.3132,0.323,0.3259,0.3182,0.3363,0.3395,0.3574,0.3634,0.3546,0.3554,0.388,0.3886,0.3891,0.3921,0,0,0,0,0,0,0.2991,0.2992,0.2991,0.3009,0.3014,0.3057,0.3066,0.3078,0.3132,0.3144,0.328,0.331,0.3368,0.356,0.3583,0.3645,0.3562,0.3875,0.3883,0.3889,0.3916,0.3927,0.3937,0,0,0,0,0,0.2989,0.3012,0.299,0.2994,0.301,0.306,0.3065,0.3116,0.3131,0.3172,0.3288,0.3309,0.3619,0.3571,0.3597,0.3663,0.3872,0.388,0.3888,0.3911,0.3925,0.3937,0,0,0,0,0,0,0.3076,0.3024,0.3003,0.3026,0.3054,0.3081,0.3111,0.3135,0.324,0.3269,0.336,0.34,0.3578,0.3619,0.3563,0.3786,0.3746,0.3759,0.3754,0.3768,0.3778,0.3712,0.3569,0,0,0,0,0,0.3065,0.3063,0.303,0.3086,0.3056,0.3075,0.31,0.3137,0.3223,0.327,0.3388,0.3505,0.3612,0.3694,0.3799,0.3917,0.3918,0.3978,0.3988,0.3997,0.3964,0.4004,0.4013,0.3919,0.3919,0.3919,0,0,0.3104,0.3111,0.3096,0.3101,0.31,0.3125,0.3102,0.3159,0.325,0.3292,0.3486,0.3557,0.3656,0.3806,0.3885,0.386,0.404,0.4007,0.4013,0.3975,0.4013,0.4021,0.4028,0.3925,0.3924,0.3923,0,0,0.3213,0.3178,0.3167,0.3187,0.3202,0.321,0.3232,0.3271,0.3337,0.3494,0.3551,0.3652,0.3853,0.3911,0.3963,0.409,0.4096,0.4145,0.4144,0.4185,0.419,0.4195,0.4256,0.4266,0.4146,0.4146,0.4146,0,0.3205,0.3258,0.3198,0.323,0.3256,0.3253,0.3278,0.3349,0.3494,0.3537,0.3589,0.3786,0.3889,0.3987,0.4049,0.4108,0.4137,0.4082,0.4191,0.4196,0.42,0.4261,0.4271,0.4148,0.4148,0.4148,0.4147,0,0.3295,0.3348,0.337,0.3376,0.3406,0.3454,0.3486,0.3566,0.3636,0.3697,0.3824,0.3916,0.4014,0.407,0.4113,0.4189,0.4205,0.4198,0.4139,0.421,0.4272,0.4282,0.4152,0.4151,0.415,0.415,0,0,0.3205,0.3347,0.3377,0.3391,0.3472,0.3486,0.3625,0.3679,0.3741,0.3867,0.3938,0.4084,0.4071,0.4124,0.4155,0.4182,0.4279,0.4209,0.421,0.4234,0.4391,0.4136,0.4123,0.4289,0.429,0.4291,0.4437,0,0.3249,0.3349,0.3432,0.3548,0.3539,0.3596,0.3708,0.3793,0.3891,0.3991,0.4011,0.4123,0.4115,0.415,0.4173,0.4255,0.43,0.4241,0.4347,0.435,0.4084,0.4123,0.3836,0.3915,0.4447,0.4448,0.4449,0,0.3272,0.3344,0.3417,0.3549,0.3535,0.3623,0.3704,0.3815,0.3945,0.4021,0.4074,0.4133,0.4196,0.4182,0.4281,0.4248,0.4325,0.4363,0.437,0.4106,0.4109,0.3926,0.3913,0.4466,0.4465,0.4463,0.4462,0,0.3182,0.3342,0.3395,0.3437,0.3555,0.36,0.3678,0.3809,0.387,0.4037,0.4067,0.4168,0.418,0.4279,0.4324,0.4358,0.4395,0.4471,0.4305,0.4293,0.4046,0.4004,0.4541,0.4541,0.454,0.454,0.454,0,0.3163,0.322,0.3355,0.3368,0.3406,0.3528,0.3583,0.3696,0.3835,0.3873,0.4041,0.4042,0.4197,0.4225,0.4334,0.428,0.4409,0.4282,0.4288,0.4054,0.4013,0.4475,0.4465,0.4546,0.4544,0.4543,0.4542,0,0.3059,0.3157,0.3197,0.3322,0.3349,0.3371,0.3497,0.3548,0.3696,0.375,0.3799,0.3956,0.4002,0.4087,0.4236,0.4218,0.4271,0.4226,0.3927,0.3888,0.4183,0.4174,0.4155,0.4146,0.4139,0.4134,0.4129,0,0.3007,0.301,0.3113,0.313,0.3189,0.3243,0.3275,0.3448,0.3506,0.3652,0.3651,0.3739,0.3738,0.3793,0.3824,0.3913,0.4063,0.3673,0.366,0.4122,0.4133,0.4136,0.4137,0.3421,0.3411,0.3403,0.3396,0,0.2864,0.2905,0.2948,0.2981,0.3013,0.3027,0.3109,0.312,0.3287,0.3328,0.3371,0.3403,0.3431,0.3342,0.3372,0.3408,0.364,0.3498,0.4061,0.3501,0.3423,0.3436,0.3464,0.332,0.3328,0.3334,0.3338,0.3341,0.277,0.2752,0.28,0.2817,0.2846,0.2815,0.2772,0.2847,0.2843,0.2886,0.3031,0.2987,0.3049,0.2949,0.2883,0.2869,0.3164,0.3121,0.3153,0.3192,0.3017,0.2923,0.27,0.2704,0.2707,0.271,0.2713,0,0.2628,0.2625,0.2637,0.2627,0.2583,0.2657,0.2644,0.2571,0.2486,0.2584,0.2597,0.2415,0.2343,0.2425,0.2294,0.231,0.2363,0.2237,0.2318,0.2392,0.2458,0.2251,0.1729,0.1726,0.1723,0.1721,0,0,0.2549,0.2493,0.2477,0.2338,0.2351,0.2224,0.2181,0.2111,0.2126,0.2047,0.2043,0.2231,0.2337,0.2003,0.1968,0.1824,0.2097,0.1752,0.2542,0.2709,0.2772,0.2966,0.2726,0,0,0,0,0]},{"header":{"parameterUnit":"m.s-1","parameterCategory":2,"la1":30.2991,"la2":30.254,"lo1":-89.0895,"lo2":-89.0444,"dy":0.0017,"dx":0.0017,"nx":28,"ny":28,"refTime":"2024-07-31T03:00:00:Z","depth":"2","parameterNumber":3,"parameterNumberName":"V-component_of_CURRENTS"},"data":[0,0,0,0,0,0,0,0,0,0,0,0,0,0,0,0,0,0,0,0,0,0,0,0,0,0,0,0,0,0,0,0,0,0,0,0,0,0,0,0,0,0,0,0,0,0,0,0,0,0,0,0,0,0,0,0,0,0,0.0472,0.0471,0,0.0384,0.0383,0.0382,0.0323,0.0323,0.0323,0.0322,0.0128,0.0123,0.0119,0,0,0,0,0,0,0,0,0,0,0,0,0,0.0477,0.0478,0.0472,0.0471,0.047,0.0384,0.0383,0.0381,0.0324,0.0323,0.0322,0.0322,0.013,0.0124,0.0118,0,0,0,0,0,0,0,0,0,0,0,0,0,0.0441,0.0478,0.0473,0.043,0.0425,0.0384,0.0382,0.0381,0.0324,0.0323,0.0322,0.0322,0.0131,0.0124,0.0117,0.0087,0,0,0.0096,0.0093,0,0,0,0,0,0,0,0,0.0444,0.0442,0.0438,0.0433,0.0428,0.0363,0.0313,0.0277,0.0324,0.0363,0.0322,0.0321,0.0197,0.0184,0.0172,0.0078,0.0069,0.0095,0.0091,0.0088,0.0086,0,0,0,0,0,0,0,0.0446,0.0444,0.0438,0.0436,0.043,0.0376,0.0371,0.0306,0.0283,0.036,0.0355,0.0344,0.0193,0.0179,0.0166,0.0067,0.0095,0.0089,0.0084,0.0082,-0.0028,-0.0026,0,0,0,0,0,0,0.0463,0.0448,0.0441,0.0435,0.0433,0.0377,0.0372,0.0385,0.0286,0.0271,0.0345,0.0342,0.0191,0.0175,0.0159,0.0144,0.0088,0.0081,0.0077,-0.0029,-0.0027,-0.0026,0,0,0,0,0,0,0.0464,0.0464,0.0444,0.0437,0.043,0.0379,0.0393,0.0384,0.037,0.0276,0.0259,0.0341,0.019,0.0169,0.0134,0.0135,0.0078,0.0071,-0.003,-0.0028,-0.0026,0.0095,0,0,0,0,0,0,0.0465,0.0466,0.0481,0.0439,0.0431,0.0434,0.0393,0.0382,0.0364,0.0359,0.0266,0.0248,0.0188,0.0146,0.0127,0.0124,0.0066,-0.0032,-0.003,-0.0027,0.0089,0.0101,0.0111,0,0,0,0,0,0.0466,0.0484,0.0483,0.0482,0.0456,0.0435,0.0427,0.0386,0.0364,0.0369,0.0324,0.0251,0.0148,0.0142,0.012,0.0114,-0.0033,-0.003,-0.0027,0.0085,0.0099,0.0111,0,0,0,0,0,0,0.049,0.0479,0.0477,0.0491,0.0474,0.0425,0.0417,0.0394,0.0362,0.0353,0.0271,0.0251,0.0217,0.0158,0.0153,0.0093,0.0043,0.0042,0.0136,0.0148,0.0159,0.0152,0.006,0,0,0,0,0,0.0507,0.0516,0.05,0.0508,0.0507,0.0467,0.0452,0.0429,0.0393,0.0377,0.0315,0.0254,0.0213,0.0178,0.0126,0.0091,0.0038,0.0074,0.0085,0.0094,0.0076,0.0048,0.0054,-0.0016,-0.0016,-0.0016,0,0,0.0518,0.0508,0.0516,0.0513,0.0494,0.0501,0.0457,0.0442,0.0439,0.0358,0.0332,0.0286,0.0215,0.0188,0.0165,0.0136,0.0087,0.0098,0.0107,0.0082,0.0052,0.0058,0.0064,-0.0013,-0.0014,-0.0014,0,0,0.0534,0.0542,0.0558,0.0553,0.0535,0.0519,0.0522,0.0486,0.0466,0.044,0.0394,0.037,0.0274,0.0249,0.0218,0.0257,0.0151,0.0223,0.026,0.0235,0.024,0.0244,0.0191,0.0189,0.0223,0.0223,0.0223,0,0.055,0.0568,0.0557,0.0569,0.0566,0.0536,0.0553,0.0534,0.0488,0.0468,0.0443,0.0363,0.0308,0.0296,0.0304,0.028,0.0228,0.0219,0.0249,0.0251,0.0253,0.0198,0.0194,0.0229,0.0229,0.0228,0.0227,0,0.0579,0.0595,0.06,0.0617,0.0619,0.0621,0.0607,0.0603,0.0569,0.0529,0.0502,0.046,0.0402,0.0395,0.0347,0.0339,0.0286,0.0274,0.0217,0.0268,0.0206,0.02,0.0238,0.0236,0.0234,0.0233,0,0,0.0579,0.0623,0.0606,0.064,0.0643,0.0647,0.0659,0.0649,0.065,0.0601,0.0593,0.0542,0.0497,0.0462,0.0426,0.0405,0.0381,0.0332,0.0328,0.028,0.0288,0.0259,0.0249,0.0365,0.0364,0.0364,0.0242,0,0.0596,0.0639,0.0643,0.0683,0.0721,0.0714,0.0732,0.0716,0.0684,0.0668,0.0622,0.0591,0.0529,0.0515,0.0483,0.0407,0.0368,0.0412,0.0243,0.0237,0.0207,0.0243,0.0277,0.0171,0.0236,0.0234,0.0234,0,0.06,0.0633,0.069,0.0746,0.0758,0.078,0.0803,0.0812,0.0783,0.0753,0.0714,0.0655,0.0611,0.0568,0.0447,0.0468,0.0367,0.0315,0.0309,0.0228,0.0197,0.0129,0.0157,0.0222,0.0223,0.0224,0.0225,0,0.0598,0.0646,0.0701,0.0719,0.079,0.0811,0.083,0.0825,0.0846,0.0804,0.081,0.072,0.0705,0.0577,0.0425,0.0423,0.0292,0.0284,0.0167,0.0162,0.0129,0.0123,0.0192,0.0193,0.0193,0.0193,0.0194,0,0.061,0.0642,0.071,0.0744,0.0814,0.0837,0.0891,0.0896,0.0912,0.0944,0.0852,0.0873,0.0703,0.0601,0.0443,0.0276,0.0294,0.0163,0.0134,0.0173,0.0173,0.0164,0.0163,0.0189,0.019,0.0191,0.0191,0,0.0615,0.0652,0.0736,0.0808,0.0833,0.0882,0.0955,0.0992,0.0998,0.1051,0.1043,0.0974,0.0842,0.0659,0.0462,0.0323,0.0157,0.0089,0.0129,0.0107,0.0034,0.004,-0.005,-0.0052,-0.0054,-0.0055,-0.0056,0,0.0639,0.0682,0.0782,0.0838,0.0878,0.0948,0.1004,0.1032,0.1078,0.1123,0.1157,0.1057,0.0992,0.0688,0.0428,0.0147,0.0125,-0.0007,0.0009,0.0031,0.0011,0.002,0.0028,0.0008,0.0007,0.0007,0.0006,0,0.0692,0.0719,0.0784,0.089,0.0963,0.1054,0.1126,0.1179,0.1225,0.1271,0.1303,0.1258,0.1002,0.0737,0.0367,0.0188,0.0039,-0.0024,-0.0007,0.0072,0.0078,0.0061,0.0069,0.0002,0.0003,0.0003,0.0003,0.0003,0.0731,0.0773,0.0845,0.0944,0.1036,0.1136,0.1197,0.1274,0.1356,0.142,0.1397,0.1346,0.1079,0.0614,0.0307,-0.0002,0.0022,-0.0088,-0.0084,-0.008,-0.0043,-0.0039,-0.0132,-0.0132,-0.0133,-0.0133,-0.0133,0,0.0778,0.0809,0.0893,0.1003,0.109,0.1141,0.1267,0.1321,0.1407,0.1476,0.1489,0.1236,0.0958,0.0648,0.0199,-0.0075,-0.008,-0.0168,-0.0105,-0.0099,-0.0094,-0.0056,-0.015,-0.0151,-0.0152,-0.0153,0,0,0.08,0.086,0.0883,0.1014,0.1095,0.1207,0.1277,0.1365,0.1436,0.1475,0.1461,0.1417,0.1059,0.0727,0.0364,0.0108,0.0064,0.0053,0.0098,0.0222,0.023,-0.0016,0.0054,0,0,0,0,0]}],[{"header":{"parameterUnit":"m.s-1","parameterCategory":2,"la1":30.2991,"la2":30.254,"lo1":-89.0895,"lo2":-89.0444,"dy":0.0017,"dx":0.0017,"nx":28,"ny":28,"refTime":"2024-07-31T03:00:00:Z","depth":"4","parameterNumber":2,"parameterNumberName":"U-component_of_CURRENTS"},"data":[0,0,0,0,0,0,0,0,0,0,0,0,0,0,0,0,0,0,0,0,0,0,0,0,0,0,0,0,0,0,0,0,0,0,0,0,0,0,0,0,0,0,0,0,0,0,0,0,0,0,0,0,0,0,0,0,0,0,0.1087,0.1088,0,0.1074,0.1073,0.1072,0.1079,0.108,0.1082,0.1083,0.1163,0.1164,0.1164,0,0,0,0,0,0,0,0,0,0,0,0,0,0.098,0.0981,0.1087,0.1088,0.1089,0.1074,0.1073,0.1072,0.1079,0.108,0.1082,0.1083,0.1162,0.1163,0.1165,0,0,0,0,0,0,0,0,0,0,0,0,0,0.0993,0.0982,0.1087,0.1098,0.11,0.1074,0.1073,0.1071,0.1078,0.108,0.1082,0.1084,0.1162,0.1163,0.1165,0.1133,0,0,0.1169,0.1169,0,0,0,0,0,0,0,0,0.0992,0.0995,0.1096,0.1097,0.1099,0.1089,0.1065,0.11,0.1078,0.1075,0.1083,0.1085,0.1152,0.1154,0.1131,0.1137,0.114,0.1169,0.117,0.117,0.1171,0,0,0,0,0,0,0,0.0991,0.0995,0.1071,0.1097,0.1099,0.1057,0.1061,0.107,0.1096,0.1076,0.1079,0.1093,0.1153,0.113,0.1134,0.1142,0.1169,0.117,0.1171,0.1171,0.1139,0.1138,0,0,0,0,0,0,0.102,0.0995,0.1072,0.1072,0.1061,0.1059,0.1063,0.1082,0.1094,0.11,0.1092,0.1094,0.1126,0.1132,0.1137,0.1253,0.117,0.1172,0.1172,0.1141,0.1139,0.1137,0,0,0,0,0,0,0.1017,0.1027,0.1072,0.1041,0.1046,0.1061,0.1081,0.1081,0.11,0.1108,0.1114,0.1118,0.1128,0.1135,0.1169,0.1251,0.1172,0.1173,0.1143,0.114,0.1138,0.1389,0,0,0,0,0,0,0.1014,0.1026,0.1057,0.1043,0.1049,0.1062,0.108,0.108,0.1109,0.1112,0.1131,0.1138,0.113,0.1167,0.117,0.1252,0.1174,0.1145,0.1142,0.1139,0.1383,0.1396,0.1407,0,0,0,0,0,0.101,0.103,0.1058,0.1068,0.1089,0.1063,0.1059,0.1069,0.1109,0.1098,0.1128,0.1139,0.1148,0.1168,0.1172,0.1256,0.1147,0.1143,0.1139,0.1378,0.1393,0.1406,0,0,0,0,0,0,0.0957,0.1034,0.1063,0.1097,0.1092,0.1069,0.1085,0.1092,0.1102,0.114,0.1142,0.1148,0.122,0.1157,0.1178,0.1214,0.1139,0.1136,0.1318,0.1333,0.1344,0.1379,0.1176,0,0,0,0,0,0.0974,0.1031,0.1057,0.1074,0.1101,0.1104,0.1108,0.1115,0.1123,0.1131,0.1157,0.1164,0.1192,0.1203,0.1206,0.1227,0.1188,0.126,0.1272,0.1284,0.13,0.1309,0.1327,0.1125,0.1125,0.1125,0,0,0.0959,0.1005,0.1037,0.1072,0.109,0.1108,0.1109,0.113,0.1145,0.1142,0.1198,0.1236,0.1207,0.1256,0.1274,0.1226,0.1311,0.1279,0.1291,0.1301,0.1308,0.1329,0.1348,0.1122,0.1123,0.1123,0,0,0.0933,0.1008,0.105,0.1082,0.1133,0.1126,0.1148,0.117,0.1192,0.1231,0.126,0.1331,0.1335,0.1353,0.1356,0.1407,0.1394,0.1404,0.1497,0.1508,0.1528,0.1544,0.1518,0.1531,0.139,0.139,0.139,0,0.0931,0.0981,0.1039,0.109,0.1137,0.1149,0.1187,0.1187,0.1211,0.1274,0.127,0.1382,0.1378,0.1467,0.1495,0.1453,0.1443,0.148,0.1537,0.1553,0.1566,0.1534,0.1545,0.1402,0.14,0.1399,0.1398,0,0.0927,0.1,0.1028,0.1118,0.1148,0.1185,0.1225,0.128,0.1335,0.1361,0.1496,0.1503,0.157,0.1584,0.1573,0.1677,0.1636,0.1588,0.1539,0.1604,0.1562,0.157,0.1418,0.1414,0.1411,0.1408,0,0,0.0926,0.1012,0.1053,0.1113,0.1196,0.1223,0.1293,0.1368,0.1449,0.1515,0.1631,0.1711,0.1772,0.1771,0.1784,0.18,0.1897,0.1757,0.1752,0.1796,0.1924,0.1876,0.1877,0.19,0.1902,0.1904,0.186,0,0.0937,0.102,0.1067,0.1164,0.1227,0.1315,0.1369,0.1457,0.1519,0.1623,0.1713,0.1807,0.1813,0.1891,0.1924,0.1915,0.1928,0.1912,0.1794,0.1789,0.1795,0.1888,0.1912,0.1865,0.1866,0.1867,0.1868,0,0.0987,0.1036,0.1122,0.1247,0.1293,0.1342,0.1516,0.1555,0.1697,0.1777,0.1918,0.1961,0.207,0.2024,0.2068,0.2076,0.2028,0.1992,0.1988,0.1865,0.1756,0.1771,0.188,0.1879,0.1878,0.1877,0.1877,0,0.1017,0.112,0.1186,0.1239,0.1343,0.1441,0.1505,0.1642,0.1707,0.1883,0.1964,0.2092,0.2162,0.2157,0.2154,0.2113,0.2171,0.2063,0.1964,0.1956,0.1905,0.1887,0.2069,0.2069,0.2069,0.2069,0.2069,0,0.1069,0.1153,0.1216,0.1281,0.1386,0.1477,0.1605,0.171,0.1839,0.1927,0.2043,0.2125,0.2209,0.2258,0.2205,0.2155,0.2207,0.2013,0.1965,0.2,0.1994,0.191,0.1892,0.2068,0.2068,0.2068,0.2069,0,0.1119,0.1161,0.1241,0.1355,0.1406,0.1494,0.1643,0.1719,0.1854,0.197,0.204,0.2184,0.2248,0.2299,0.2295,0.2206,0.2154,0.2113,0.2187,0.2138,0.1891,0.1885,0.1926,0.1925,0.1923,0.1922,0.1921,0,0.1132,0.118,0.1285,0.1323,0.1382,0.1509,0.1592,0.1743,0.1804,0.1979,0.2022,0.216,0.2241,0.2199,0.2255,0.219,0.2148,0.2101,0.1966,0.1939,0.1888,0.1884,0.188,0.1919,0.1919,0.1919,0.1918,0,0.1143,0.1189,0.1244,0.1305,0.1393,0.1463,0.1585,0.1628,0.1789,0.1921,0.1979,0.2018,0.2098,0.2125,0.2167,0.2091,0.2125,0.2084,0.2081,0.1953,0.193,0.188,0.1878,0.1914,0.1914,0.1915,0.1915,0,0.1131,0.1153,0.1205,0.1262,0.1346,0.1373,0.1457,0.1535,0.1619,0.1807,0.1833,0.1955,0.2095,0.2074,0.2088,0.2075,0.1957,0.1834,0.1842,0.1847,0.1852,0.1813,0.1749,0,0,0,0,0,0.1085,0.1099,0.1144,0.1181,0.1258,0.1297,0.1421,0.1497,0.1666,0.1668,0.1741,0.1808,0.1844,0.1907,0.1858,0.1998,0.1954,0.1931,0.1814,0.1889,0.1894,0.1911,0,0,0,0,0,0,0.105,0.1089,0.1108,0.1102,0.1114,0.1176,0.1245,0.1354,0.1362,0.1538,0.1571,0.1695,0.1759,0.1856,0.1824,0.1841,0.1726,0.2016,0.2011,0.1886,0.189,0.1895,0.1914,0,0,0,0,0]},{"header":{"parameterUnit":"m.s-1","parameterCategory":2,"la1":30.2991,"la2":30.254,"lo1":-89.0895,"lo2":-89.0444,"dy":0.0017,"dx":0.0017,"nx":28,"ny":28,"refTime":"2024-07-31T03:00:00:Z","depth":"4","parameterNumber":3,"parameterNumberName":"V-component_of_CURRENTS"},"data":[0,0,0,0,0,0,0,0,0,0,0,0,0,0,0,0,0,0,0,0,0,0,0,0,0,0,0,0,0,0,0,0,0,0,0,0,0,0,0,0,0,0,0,0,0,0,0,0,0,0,0,0,0,0,0,0,0,0,0.0277,0.0276,0,0.0209,0.0208,0.0207,0.0185,0.0186,0.0187,0.0187,0.0094,0.0091,0.0088,0,0,0,0,0,0,0,0,0,0,0,0,0,0.0294,0.0294,0.0277,0.0276,0.0276,0.0209,0.0208,0.0207,0.0185,0.0186,0.0187,0.0188,0.0095,0.0091,0.0087,0,0,0,0,0,0,0,0,0,0,0,0,0,0.0259,0.0294,0.0277,0.026,0.0258,0.021,0.0208,0.0206,0.0185,0.0186,0.0187,0.0188,0.0096,0.0092,0.0087,0.0038,0,0,0.0073,0.0071,0,0,0,0,0,0,0,0,0.0261,0.0258,0.0263,0.0261,0.0259,0.021,0.018,0.015,0.0185,0.0209,0.0187,0.0188,0.0132,0.0124,0.0104,0.0034,0.003,0.0072,0.0069,0.0067,0.0066,0,0,0,0,0,0,0,0.0264,0.026,0.0246,0.0262,0.026,0.0224,0.022,0.0174,0.0162,0.0207,0.0206,0.0204,0.013,0.0109,0.0102,0.0029,0.0072,0.0068,0.0065,0.0064,-0.0084,-0.0085,0,0,0,0,0,0,0.0284,0.0263,0.0248,0.0244,0.0267,0.0224,0.0219,0.0221,0.0163,0.0157,0.0203,0.0203,0.0116,0.0108,0.0099,0.0081,0.0068,0.0063,0.006,-0.0083,-0.0084,-0.0086,0,0,0,0,0,0,0.0284,0.0283,0.0251,0.0255,0.0249,0.0223,0.0225,0.022,0.0212,0.0162,0.0154,0.0203,0.0117,0.0105,0.0071,0.0075,0.0061,0.0057,-0.0082,-0.0083,-0.0085,0.0017,0,0,0,0,0,0,0.0285,0.0284,0.0294,0.0257,0.025,0.0223,0.0224,0.0218,0.021,0.021,0.0158,0.015,0.0117,0.0078,0.0066,0.0069,0.0053,-0.008,-0.0082,-0.0084,0.0015,0.0019,0.0022,0,0,0,0,0,0.0286,0.0297,0.0295,0.0293,0.0264,0.0222,0.0214,0.0196,0.021,0.0195,0.0174,0.0152,0.0056,0.0074,0.006,0.0062,-0.0079,-0.0082,-0.0084,0.0013,0.0018,0.0022,0,0,0,0,0,0,0.0305,0.0295,0.0292,0.0299,0.0264,0.022,0.022,0.0204,0.0175,0.0189,0.0145,0.0133,0.0105,0.0057,0.0079,0.0006,-0.0019,-0.0025,0.0059,0.0063,0.0067,0.011,0.0049,0,0,0,0,0,0.0316,0.0328,0.0294,0.0299,0.0292,0.0258,0.0244,0.0228,0.0198,0.0188,0.0155,0.0115,0.0077,0.0055,0.001,-0.0029,-0.0076,-0.0044,-0.004,-0.0037,-0.0015,-0.0097,-0.0097,-0.0094,-0.0094,-0.0094,0,0,0.0328,0.0323,0.0331,0.0305,0.0288,0.0271,0.0252,0.0237,0.0227,0.0181,0.0168,0.0131,0.007,0.0036,0.0017,0.0002,-0.0065,-0.004,-0.0035,-0.0016,-0.0099,-0.0099,-0.0099,-0.0096,-0.0095,-0.0095,0,0,0.0348,0.0352,0.0365,0.0349,0.0327,0.0292,0.0292,0.0253,0.0245,0.0215,0.019,0.0159,0.009,0.0055,0.0028,0.0015,-0.0038,-0.0007,0.0047,-0.0033,-0.0033,-0.0033,-0.009,-0.0096,-0.001,-0.001,-0.001,0,0.0363,0.0377,0.0356,0.0363,0.0362,0.0308,0.0312,0.0282,0.0235,0.0241,0.0223,0.0154,0.01,0.0075,0.0074,0.0029,-0.0016,0.0046,-0.0024,-0.0025,-0.0027,-0.0086,-0.0094,-0.0005,-0.0006,-0.0006,-0.0007,0,0.0384,0.0405,0.0413,0.0407,0.039,0.0385,0.0347,0.0336,0.0319,0.029,0.0273,0.0205,0.017,0.0136,0.0107,0.007,0.0044,-0.0001,-0.002,-0.0021,-0.0083,-0.0093,0.0001,-0.0,-0.0002,-0.0003,0,0,0.0406,0.0425,0.0436,0.0452,0.0424,0.0409,0.0409,0.0385,0.0394,0.035,0.0363,0.0295,0.0274,0.0241,0.0191,0.0125,0.0066,0.007,0.0064,0.0041,-0.009,-0.0045,-0.0053,0.0013,0.0012,0.0011,-0.0125,0,0.0432,0.0465,0.0464,0.0488,0.0499,0.0481,0.0478,0.0458,0.0426,0.0416,0.0373,0.0348,0.0305,0.0296,0.023,0.0099,0.0043,0.0108,-0.011,-0.0115,-0.0054,-0.0062,0.0006,-0.0133,-0.0135,-0.0137,-0.0138,0,0.0452,0.0479,0.0517,0.0548,0.0554,0.0553,0.0559,0.0551,0.0527,0.052,0.0505,0.0455,0.0391,0.034,0.0151,0.0197,0.008,-0.0024,-0.0034,-0.0027,-0.0089,-0.014,-0.0158,-0.0156,-0.0155,-0.0153,-0.0152,0,0.0467,0.0514,0.0551,0.0564,0.058,0.0609,0.0608,0.059,0.0595,0.0588,0.0585,0.0509,0.0462,0.0312,0.0129,0.0129,-0.009,-0.0137,-0.0199,-0.0198,-0.0241,-0.0239,-0.026,-0.026,-0.026,-0.026,-0.0259,0,0.0483,0.0517,0.057,0.0594,0.0641,0.0647,0.0674,0.0679,0.0679,0.0686,0.0643,0.0625,0.0449,0.0313,0.0147,-0.0043,-0.0084,-0.0174,-0.0227,-0.0197,-0.0189,-0.0248,-0.0245,-0.0265,-0.0264,-0.0263,-0.0262,0,0.0473,0.0513,0.0562,0.0622,0.0647,0.0678,0.0718,0.0734,0.0737,0.0749,0.0757,0.0685,0.0528,0.0345,0.0085,-0.0022,-0.0216,-0.0271,-0.0198,-0.0248,-0.0275,-0.0265,-0.036,-0.0359,-0.0359,-0.0358,-0.0358,0,0.0462,0.0492,0.0581,0.0624,0.0655,0.0707,0.0743,0.0768,0.0785,0.0778,0.0789,0.0679,0.061,0.0294,0.0102,-0.018,-0.0217,-0.0309,-0.0297,-0.0241,-0.0284,-0.0275,-0.0267,-0.0357,-0.0357,-0.0357,-0.0357,0,0.0445,0.0485,0.053,0.0621,0.0683,0.0741,0.0795,0.0812,0.0844,0.0846,0.0811,0.0691,0.0532,0.0314,0.0116,-0.0095,-0.0248,-0.0306,-0.0308,-0.0298,-0.024,-0.0281,-0.0273,-0.0355,-0.0356,-0.0356,-0.0356,0,0.0434,0.0458,0.0534,0.061,0.0691,0.0761,0.0786,0.082,0.0842,0.0845,0.0829,0.0685,0.0604,0.0357,0.0159,-0.0017,-0.0071,-0.014,-0.0152,-0.0156,-0.0045,0.0062,0.0005,0,0,0,0,0,0.0427,0.0459,0.052,0.0612,0.0691,0.0744,0.0819,0.0842,0.0874,0.0858,0.0848,0.0713,0.0475,0.0375,0.0204,0.0145,-0.0117,-0.0062,-0.0206,-0.0347,-0.0349,-0.0246,0,0,0,0,0,0,0.0424,0.0475,0.0508,0.0603,0.0665,0.0752,0.0805,0.0831,0.0821,0.0833,0.0708,0.067,0.0431,0.0568,0.0199,0.0149,0.0035,-0.0168,-0.0172,-0.0346,-0.0347,-0.0349,-0.0244,0,0,0,0,0]}]]